sat.trackr.live / text

‹ back to catalog

STARLINK-36671

NORAD 68967 · 2026-099S

PAYLOAD ACTIVE UNKNOWN

§ Identity

Operator
Country
US
Launch date
2026-05-01
Launch site
AFETR
Launch vehicle
Mass (kg)
RCS (m²)

Purposes: comms

External: N2YO · Heavens-Above · Gunter

§ Orbital elements

Epoch: 2026-05-25T04:00:03.998880Z

Period
91.47 min
Inclination
53.1592°
Eccentricity
0.0000806
Mean motion
15.74244860 rev/d
Perigee alt
346.2 km
Apogee alt
347.3 km
Semi-major
6,724.9 km
B*
-3.0989e-3
RAAN
269.8840°
Arg perigee
66.4600°
Mean anomaly
317.9456°
Rev number
501

§ Raw data

STARLINK-366711 68967U 26099S   26145.16671295 -.00432957  00000+0 -30989-2 0  99992 68967  53.1592 269.8840 0000806  66.4600 317.9456 15.74244860  5018

JSON: /api/v1/satellites/68967 · /tle

For live sub-satellite position, see the globe view (requires WebGL).

§ Visibility from observer

Set your observer location to see the next 7 days of passes ≥ 10°. The values pass through the URL so the page stays shareable.

No JS? Fill the form by hand. The geolocation button needs JavaScript.